Suez Canal Bridge — HODM — position and weather

sailwx.info

Track history (hours):
 
Tides and Currents Weather Stations Pressure Air Temp Water Temp Dewpoint Dewpoint Depression Visibility Wind Speed Wind Dir Waves Ship Positions

Suez Canal Bridge

Last reported at 2014-Oct-28 13:27 UTC. Time now 2014-Oct-30 12:13 UTC.
Position N 36°27' E 014°30'.

Length 284.7 m; beam 40 m.

Type: Cargo ship. MMSI: 353704000.

Date/timePositionNaut miles runAvg speedWind from/ knotsBaromVisibWave heightAir tempDewpointWater temp
2014-Oct-28 13:27N 36°27' E 014°30'1213.1
2014-Oct-28 12:33N 36°31' E 014°16'1312.9
2014-Oct-28 11:32N 36°34' E 014°00'44512.7
2014-Oct-27 00:33N 37°14' E 004°46'1212.5
2014-Oct-26 23:33N 37°14' E 004°31'1412.7
2014-Oct-26 22:29N 37°13' E 004°14'1212.5
2014-Oct-26 21:31N 37°13' E 003°59'1312.4
2014-Oct-26 20:29N 37°11' E 003°43'1213.2
2014-Oct-26 19:33N 37°09' E 003°27'1313.0
2014-Oct-26 18:33N 37°06' E 003°11'1312.8
2014-Oct-26 17:33N 37°04' E 002°56'1212.4
2014-Oct-26 16:34N 37°02' E 002°40'1211.7
2014-Oct-26 15:32N 36°59' E 002°26'1812.2
2014-Oct-26 14:04N 36°56' E 002°04'612.2
2014-Oct-26 13:33N 36°55' E 001°56'1212.4
2014-Oct-26 12:33N 36°52' E 001°41'1212.3
2014-Oct-26 11:33N 36°50' E 001°26'1413.5
2014-Oct-26 10:31N 36°47' E 001°08'1313.6
2014-Oct-26 09:32N 36°45' E 000°52'1313.1
2014-Oct-26 08:33N 36°42' E 000°36'1313.1
2014-Oct-26 07:32N 36°40' E 000°20'1312.9
2014-Oct-26 06:31N 36°37' E 000°04'3913.2
2014-Oct-26 03:33N 36°30' W 000°44'3212.9
2014-Oct-26 01:05N 36°24' W 001°23'1413.6
2014-Oct-26 00:03N 36°21' W 001°40'17214.5
2014-Oct-25 12:10N 35°59' W 005°11'813.6
2014-Oct-25 11:34N 35°57' W 005°21'13712.4
2014-Oct-25 00:33N 36°06' W 008°10'1312.5
2014-Oct-24 23:33N 36°08' W 008°26'1312.5
2014-Oct-24 22:33N 36°10' W 008°41'1312.9
2014-Oct-24 21:34N 36°12' W 008°57'1312.8
2014-Oct-24 20:34N 36°15' W 009°12'1312.9
2014-Oct-24 19:33N 36°20' W 009°27'1312.9
2014-Oct-24 18:33N 36°24' W 009°42'3912.9
2014-Oct-24 15:33N 36°37' W 010°28'1312.9
2014-Oct-24 14:33N 36°41' W 010°43'1312.7
2014-Oct-24 13:33N 36°45' W 010°58'1312.8
2014-Oct-24 12:33N 36°48' W 011°13'1312.8
2014-Oct-24 11:33N 36°51' W 011°29'1313.0
2014-Oct-24 10:33N 36°55' W 011°44'1312.8
2014-Oct-24 09:33N 36°58' W 012°00'1312.7
2014-Oct-24 08:33N 37°02' W 012°15'1312.6
2014-Oct-24 07:33N 37°06' W 012°30'1312.7
2014-Oct-24 06:33N 37°09' W 012°46'1212.4
2014-Oct-24 05:33N 37°12' W 013°01'1312.6
2014-Oct-24 04:33N 37°16' W 013°16'1212.4
2014-Oct-24 03:33N 37°19' W 013°31'1312.6
2014-Oct-24 02:33N 37°22' W 013°46'1212.4
2014-Oct-24 01:33N 37°25' W 014°01'3112.7
2014-Oct-23 23:07N 37°34' W 014°39'13412.6
2014-Oct-23 12:29N 38°06' W 017°23'48713.6
2014-Oct-22 00:33N 39°33' W 027°38'1313.3
2014-Oct-21 23:33N 39°34' W 027°55'1313.2
2014-Oct-21 22:33N 39°36' W 028°12'1313.1
2014-Oct-21 21:33N 39°38' W 028°29'1313.1
2014-Oct-21 20:33N 39°39' W 028°46'1313.1
2014-Oct-21 19:33N 39°40' W 029°03'1312.6
2014-Oct-21 18:33N 39°42' W 029°19'1312.7
2014-Oct-21 17:33N 39°43' W 029°36'1312.7
2014-Oct-21 16:32N 39°44' W 029°53'1312.9
2014-Oct-21 15:33N 39°45' W 030°09'  
Track history (hours):
 
Tides and Currents Weather Stations Pressure Air Temp Water Temp Dewpoint Dewpoint Depression Visibility Wind Speed Wind Dir Waves Ship Positions

Suez Canal Bridge

Last reported at 2014-Oct-28 13:27 UTC. Time now 2014-Oct-30 12:13 UTC.
Position N 36°27' E 014°30'.

Length 284.7 m; beam 40 m.

Type: Cargo ship. MMSI: 353704000.

Date/timePositionNaut miles runAvg speedWind from/ knotsBaromVisibWave heightAir tempDewpointWater temp
2014-Oct-28 13:27N 36°27' E 014°30'1213.1
2014-Oct-28 12:33N 36°31' E 014°16'1312.9
2014-Oct-28 11:32N 36°34' E 014°00'44512.7
2014-Oct-27 00:33N 37°14' E 004°46'1212.5
2014-Oct-26 23:33N 37°14' E 004°31'1412.7
2014-Oct-26 22:29N 37°13' E 004°14'1212.5
2014-Oct-26 21:31N 37°13' E 003°59'1312.4
2014-Oct-26 20:29N 37°11' E 003°43'1213.2
2014-Oct-26 19:33N 37°09' E 003°27'1313.0
2014-Oct-26 18:33N 37°06' E 003°11'1312.8
2014-Oct-26 17:33N 37°04' E 002°56'1212.4
2014-Oct-26 16:34N 37°02' E 002°40'1211.7
2014-Oct-26 15:32N 36°59' E 002°26'1812.2
2014-Oct-26 14:04N 36°56' E 002°04'612.2
2014-Oct-26 13:33N 36°55' E 001°56'1212.4
2014-Oct-26 12:33N 36°52' E 001°41'1212.3
2014-Oct-26 11:33N 36°50' E 001°26'1413.5
2014-Oct-26 10:31N 36°47' E 001°08'1313.6
2014-Oct-26 09:32N 36°45' E 000°52'1313.1
2014-Oct-26 08:33N 36°42' E 000°36'1313.1
2014-Oct-26 07:32N 36°40' E 000°20'1312.9
2014-Oct-26 06:31N 36°37' E 000°04'3913.2
2014-Oct-26 03:33N 36°30' W 000°44'3212.9
2014-Oct-26 01:05N 36°24' W 001°23'1413.6
2014-Oct-26 00:03N 36°21' W 001°40'17214.5
2014-Oct-25 12:10N 35°59' W 005°11'813.6
2014-Oct-25 11:34N 35°57' W 005°21'13712.4
2014-Oct-25 00:33N 36°06' W 008°10'1312.5
2014-Oct-24 23:33N 36°08' W 008°26'1312.5
2014-Oct-24 22:33N 36°10' W 008°41'1312.9
2014-Oct-24 21:34N 36°12' W 008°57'1312.8
2014-Oct-24 20:34N 36°15' W 009°12'1312.9
2014-Oct-24 19:33N 36°20' W 009°27'1312.9
2014-Oct-24 18:33N 36°24' W 009°42'3912.9
2014-Oct-24 15:33N 36°37' W 010°28'1312.9
2014-Oct-24 14:33N 36°41' W 010°43'1312.7
2014-Oct-24 13:33N 36°45' W 010°58'1312.8
2014-Oct-24 12:33N 36°48' W 011°13'1312.8
2014-Oct-24 11:33N 36°51' W 011°29'1313.0
2014-Oct-24 10:33N 36°55' W 011°44'1312.8
2014-Oct-24 09:33N 36°58' W 012°00'1312.7
2014-Oct-24 08:33N 37°02' W 012°15'1312.6
2014-Oct-24 07:33N 37°06' W 012°30'1312.7
2014-Oct-24 06:33N 37°09' W 012°46'1212.4
2014-Oct-24 05:33N 37°12' W 013°01'1312.6
2014-Oct-24 04:33N 37°16' W 013°16'1212.4
2014-Oct-24 03:33N 37°19' W 013°31'1312.6
2014-Oct-24 02:33N 37°22' W 013°46'1212.4
2014-Oct-24 01:33N 37°25' W 014°01'3112.7
2014-Oct-23 23:07N 37°34' W 014°39'13412.6
2014-Oct-23 12:29N 38°06' W 017°23'48713.6
2014-Oct-22 00:33N 39°33' W 027°38'1313.3
2014-Oct-21 23:33N 39°34' W 027°55'1313.2
2014-Oct-21 22:33N 39°36' W 028°12'1313.1
2014-Oct-21 21:33N 39°38' W 028°29'1313.1
2014-Oct-21 20:33N 39°39' W 028°46'1313.1
2014-Oct-21 19:33N 39°40' W 029°03'1312.6
2014-Oct-21 18:33N 39°42' W 029°19'1312.7
2014-Oct-21 17:33N 39°43' W 029°36'1312.7
2014-Oct-21 16:32N 39°44' W 029°53'1312.9
2014-Oct-21 15:33N 39°45' W 030°09'  

Dump ship's entire track history